Location: Laporte
(40.6264°N, 105.1378°W)
Time: 14:13:50
(UTC+00:00)

Envisat - Pass Details

Date: 23 August 2022
Orbit: 764 x 765 km, 98.2° (Epoch: 26 September)

Event Time Altitude Azimuth Distance (km) Brightness Sun altitude
Rises 11:09:54 0° 16° (NNE) 3,239 6.9 -13.0°
Reaches altitude 10° 11:12:15 10° 20° (NNE) 2,308 6.2 -12.6°
Maximum altitude 11:17:16 60° 101° (E) 870 3.6 -11.8°
Drops below altitude 10° 11:22:16 10° 181° (S) 2,291 5.2 -10.9°
Sets 11:24:35 0° 185° (S) 3,213 5.9 -10.5°
